Date String (YYYY-MM-DD hh:mm:ss) UTC,Instrument flags,absolute air pressure of the measurement (hPa),sample flow rate (lpm),inlet stack bypass flow (lpm),air temperature of the measurement (°C),ambient temperature measured by the external sensor (°C),aerosol sample conditioner tube jacket temperature (°C),OPC LED temperature (°C),internal box temperature (°C),relative humidity of the measurement (%),span deviation,mass concentration of particles derived from Lorenz-Mie calculation of OPC scattering (μg/m³),mass concentration of particles derived from Lorenz-Mie calculation of OPC scattering (μg/m³),mass concentration of particles derived from Lorenz-Mie calculation of OPC scattering (μg/m³)
DateTimeUTC,F1_M11,P_M11,Q1_M11,Q2_M11,T1_M11,T2_M11,T3_M11,T4_M11,T5_M11,U1_M11,ZSPAN_M11,X0_M11,X2_M11,X1_M11
2023-10-02 23:00:00,SystemResetWarning,0823.8,5.00,000.00,027.9,025.3,000.0,036.4,029.5,21.8,0000.0,0008.38,0002.18,0001.59
2023-10-02 23:01:00,SystemResetWarning,0823.8,5.00,000.00,027.9,025.6,000.0,036.4,029.6,22.0,0000.0,0008.16,0002.07,0001.57
2023-10-02 23:02:00,SystemResetWarning,0823.8,5.00,000.00,027.9,026.0,000.0,036.4,029.7,21.8,0000.0,0008.05,0002.02,0001.55
2023-10-02 23:03:00,SystemResetWarning,0823.7,5.00,000.00,027.9,026.3,000.0,036.4,029.7,21.8,0000.0,0008.26,0002.02,0001.54
2023-10-02 23:04:00,SystemResetWarning,0823.7,5.00,000.00,028.0,026.5,000.0,036.4,029.8,21.6,0000.0,0008.24,0002.03,0001.54
2023-10-02 23:05:00,SystemResetWarning,0823.6,5.00,000.00,028.0,026.7,000.0,036.4,029.9,21.7,0000.0,0008.29,0002.03,0001.53
2023-10-02 23:06:00,SystemResetWarning,0823.6,5.00,000.00,028.0,026.9,000.0,036.4,029.9,22.2,0000.0,0007.95,0002.06,0001.53
2023-10-02 23:07:00,SystemResetWarning,0823.5,4.98,000.00,028.1,027.0,000.0,036.5,030.0,22.7,0000.0,0007.61,0002.08,0001.53
2023-10-02 23:08:00,SystemResetWarning,0823.5,5.00,000.00,028.1,027.2,000.0,036.5,030.0,22.6,0000.0,0006.12,0002.10,0001.53
2023-10-02 23:09:00,SystemResetWarning,0823.4,5.00,000.00,028.2,027.2,000.0,036.5,030.1,22.1,0000.0,0005.32,0002.12,0001.54
2023-10-02 23:10:00,SystemResetWarning,0823.4,4.99,000.00,028.2,026.1,000.0,036.5,030.0,21.6,0000.0,0004.69,0002.09,0001.55
2023-10-02 23:11:00,SystemResetWarning,0823.4,5.00,000.00,028.1,024.9,000.0,036.4,029.8,20.8,0000.0,0004.06,0002.10,0001.53
2023-10-02 23:12:00,SystemResetWarning,0823.4,5.01,000.00,028.1,024.8,000.0,036.4,029.7,21.2,0000.0,0004.23,0002.12,0001.53
2023-10-02 23:13:00,SystemResetWarning,0823.5,4.99,000.00,028.0,025.1,000.0,036.4,029.6,21.5,0000.0,0004.46,0002.13,0001.53
2023-10-02 23:14:00,SystemResetWarning,0823.5,5.00,000.00,028.0,025.4,000.0,036.4,029.7,21.9,0000.0,0004.36,0002.11,0001.53
2023-10-02 23:15:00,SystemResetWarning,0823.5,5.01,000.00,028.0,025.8,000.0,036.5,029.7,22.0,0000.0,0004.62,0002.09,0001.53
2023-10-02 23:16:00,SystemResetWarning,0823.4,5.00,000.00,028.0,026.1,000.0,036.5,029.8,22.5,0000.0,0004.60,0002.08,0001.52
2023-10-02 23:17:00,SystemResetWarning,0823.3,5.00,000.00,028.0,026.4,000.0,036.5,029.8,23.0,0000.0,0004.64,0002.08,0001.52
2023-10-02 23:18:00,SystemResetWarning,0823.2,5.00,000.00,028.1,026.6,000.0,036.5,029.9,22.7,0000.0,0004.59,0002.09,0001.53
2023-10-02 23:19:00,SystemResetWarning,0823.1,4.99,000.00,028.1,026.8,000.0,036.5,029.9,22.8,0000.0,0005.44,0002.10,0001.53
2023-10-02 23:20:00,SystemResetWarning,0823.0,5.00,000.00,028.1,027.0,000.0,036.5,030.0,22.7,0000.0,0005.59,0002.07,0001.53
2023-10-02 23:21:00,SystemResetWarning,0823.0,5.00,000.00,028.2,027.1,000.0,036.5,030.1,22.3,0000.0,0005.87,0002.12,0001.54
2023-10-02 23:22:00,SystemResetWarning,0823.0,5.00,000.00,028.2,027.2,000.0,036.6,030.1,22.3,0000.0,0005.98,0002.14,0001.56
2023-10-02 23:23:00,SystemResetWarning,0823.1,4.99,000.00,028.3,026.6,000.0,036.6,030.1,21.8,0000.0,0005.97,0002.14,0001.57
2023-10-02 23:24:00,SystemResetWarning,0823.2,5.00,000.00,028.2,025.1,000.0,036.5,029.9,22.0,0000.0,0006.70,0002.18,0001.58
2023-10-02 23:25:00,SystemResetWarning,0823.1,5.02,000.00,028.2,024.8,000.0,036.5,029.8,22.3,0000.0,0006.50,0002.23,0001.58
2023-10-02 23:26:00,SystemResetWarning,0823.2,5.00,000.00,028.1,025.0,000.0,036.5,029.7,22.6,0000.0,0006.17,0002.30,0001.58
2023-10-02 23:27:00,SystemResetWarning,0823.3,5.00,000.00,028.1,025.3,000.0,036.5,029.7,22.9,0000.0,0006.22,0002.35,0001.59
2023-10-02 23:28:00,SystemResetWarning,0823.4,5.00,000.00,028.0,025.7,000.0,036.5,029.7,23.0,0000.0,0007.05,0002.37,0001.60
2023-10-02 23:29:00,SystemResetWarning,0823.5,5.00,000.00,028.1,026.0,000.0,036.5,029.8,23.6,0000.0,0007.61,0002.37,0001.60
2023-10-02 23:30:00,SystemResetWarning,0823.6,4.99,000.00,028.1,026.3,000.0,036.5,029.8,23.5,0000.0,0007.11,0002.36,0001.61
2023-10-02 23:31:00,SystemResetWarning,0823.8,5.00,000.00,028.1,026.5,000.0,036.5,029.9,21.8,0000.0,0007.23,0002.45,0001.62
2023-10-02 23:32:00,SystemResetWarning,0824.0,5.00,000.00,028.1,026.7,000.0,036.5,030.0,22.7,0000.0,0007.41,0002.44,0001.63
2023-10-02 23:33:00,SystemResetWarning,0824.0,5.00,000.00,028.2,026.9,000.0,036.6,030.0,23.8,0000.0,0007.31,0002.43,0001.64
2023-10-02 23:34:00,SystemResetWarning,0824.0,5.00,000.00,028.2,027.1,000.0,036.6,030.1,25.0,0000.0,0007.38,0002.46,0001.66
2023-10-02 23:35:00,SystemResetWarning,0823.9,4.99,000.00,028.2,027.1,000.0,036.6,030.1,24.3,0000.0,0006.86,0002.42,0001.65
2023-10-02 23:36:00,SystemResetWarning,0823.8,4.99,000.00,028.3,026.1,000.0,036.6,030.1,22.9,0000.0,0006.92,0002.43,0001.66
2023-10-02 23:37:00,SystemResetWarning,0823.7,5.00,000.00,028.2,024.8,000.0,036.5,029.9,23.2,0000.0,0007.65,0002.40,0001.67
2023-10-02 23:38:00,SystemResetWarning,0823.6,5.01,000.00,028.1,024.6,000.0,036.5,029.7,22.0,0000.0,0008.00,0002.50,0001.69
2023-10-02 23:39:00,SystemResetWarning,0823.7,5.01,000.00,028.0,024.8,000.0,036.5,029.6,21.4,0000.0,0008.15,0002.59,0001.72
2023-10-02 23:40:00,SystemResetWarning,0823.6,5.00,000.00,028.0,025.2,000.0,036.5,029.6,22.1,0000.0,0008.03,0002.63,0001.73
2023-10-02 23:41:00,SystemResetWarning,0823.8,4.99,000.00,028.0,025.5,000.0,036.5,029.7,21.4,0000.0,0008.16,0002.61,0001.75
2023-10-02 23:42:00,SystemResetWarning,0823.8,5.00,000.00,028.0,025.9,000.0,036.5,029.7,22.8,0000.0,0007.99,0002.54,0001.75
2023-10-02 23:43:00,SystemResetWarning,0823.8,5.00,000.00,028.0,026.2,000.0,036.5,029.8,24.0,0000.0,0008.05,0002.53,0001.75
2023-10-02 23:44:00,SystemResetWarning,0823.9,5.00,000.00,028.0,026.4,000.0,036.5,029.8,24.2,0000.0,0008.89,0002.58,0001.77
2023-10-02 23:45:00,SystemResetWarning,0823.9,5.01,000.00,028.1,026.6,000.0,036.5,029.9,24.0,0000.0,0008.90,0002.58,0001.77
2023-10-02 23:46:00,SystemResetWarning,0823.9,5.00,000.00,028.1,026.8,000.0,036.5,029.9,23.1,0000.0,0008.58,0002.61,0001.79
2023-10-02 23:47:00,SystemResetWarning,0823.9,4.99,000.00,028.2,027.0,000.0,036.5,030.0,22.6,0000.0,0008.56,0002.63,0001.81
2023-10-02 23:48:00,SystemResetWarning,0823.9,5.00,000.00,028.2,027.1,000.0,036.6,030.1,22.7,0000.0,0008.83,0002.60,0001.82
2023-10-02 23:49:00,SystemResetWarning,0824.0,5.00,000.00,028.2,026.7,000.0,036.6,030.1,22.1,0000.0,0008.34,0002.52,0001.81
2023-10-02 23:50:00,SystemResetWarning,0824.0,5.00,000.00,028.2,025.1,000.0,036.5,029.9,22.8,0000.0,0007.96,0002.47,0001.82
2023-10-02 23:51:00,SystemResetWarning,0823.9,5.02,000.00,028.1,024.6,000.0,036.5,029.8,22.1,0000.0,0007.62,0002.45,0001.82
2023-10-02 23:52:00,SystemResetWarning,0823.8,5.00,000.00,028.1,024.8,000.0,036.5,029.6,22.6,0000.0,0007.32,0002.44,0001.83
2023-10-02 23:53:00,SystemResetWarning,0823.8,5.00,000.00,028.0,025.1,000.0,036.5,029.6,23.4,0000.0,0007.34,0002.45,0001.83
2023-10-02 23:54:00,SystemResetWarning,0823.8,5.00,000.00,028.0,025.5,000.0,036.5,029.7,23.9,0000.0,0007.11,0002.44,0001.81
2023-10-02 23:55:00,SystemResetWarning,0823.8,5.00,000.00,028.0,025.8,000.0,036.5,029.7,24.2,0000.0,0006.20,0002.44,0001.81
2023-10-02 23:56:00,SystemResetWarning,0823.8,5.00,000.00,028.0,026.1,000.0,036.5,029.8,24.3,0000.0,0007.10,0002.42,0001.81
2023-10-02 23:57:00,SystemResetWarning,0823.8,5.00,000.00,028.0,026.4,000.0,036.5,029.8,24.7,0000.0,0007.18,0002.45,0001.81
2023-10-02 23:58:00,SystemResetWarning,0823.8,5.00,000.00,028.1,026.6,000.0,036.5,029.9,25.1,0000.0,0007.26,0002.47,0001.82
2023-10-02 23:59:00,SystemResetWarning,0823.8,5.00,000.00,028.1,026.8,000.0,036.5,029.9,24.6,0000.0,0006.23,0002.50,0001.82
